Content
SEND FEEDBACK

Daily
Averages
Monthly
Summary
United States of America

MERIZO, GUAM


Home > North America > United States > Guam
Elevation: 3 meters     Latitude: 13 14N     Longitude: 144 39E

WEATHER
 
SELECT A DAY
Number of Records: 354,701;   Date Range: 1/1/95 - 11/26/14
 
SHARE

PRINT THIS DATA

[ ← Previous Day ]
WEATHER ALMANAC - 31 JANUARY, 2013
[ Next Day → ]
[ °F ]   °C
Weather ElementAverageHighLow
Temperature25 °C28 °C (11:02 am)23 °C (8:52 pm)
Dewpoint22.4 °C24 °C (1:15 pm)20 °C (11:18 pm)
Humidity86.1 %100 % (1:15 pm)70 % (11:16 am)
Barometer1014.9 hPa1016.6 hPa (9:02 am)1013.2 hPa (3:28 am)
Wind Speed35.9 km/h51.8 km/h (12:27 pm)
Wind Gust64.9 km/h (12:27 pm)
Weather ElementAverage
Visibility14 km
Wind DirectionNE (41.3 °)

Weather ElementTotal
Precipitation2.79 mm
Cooling Degree Days7.2 (Base 18.3)
Growing Degree Days15.5 (Base 10)
Averaged from 179 records on 31 January, 2013
WEATHER CONDITIONS BREAKOUT
WIND DIRECTION BREAKOUT
WEATHER BY HOUR - 31 JANUARY, 2013
[ °F ]   °C
Local TimeTemperatureDewpointHumidityBarometerVisibilityWind DirectionWind SpeedGust SpeedPrecipitationEventsConditions
12:11 AM25 °C23 °C89 %1014.6 hPa16.1 kmENE (60°)25.9 km/hMostly Cloudy
12:38 AM25 °C22 °C83 %1014.2 hPa16.1 kmENE (60°)31.5 km/h40.7 km/hMostly Cloudy
12:55 AM25.1 °C22.7 °C86 %1014.2 hPa16.1 kmENE (70°)22.2 km/h0 mmMostly Cloudy
1:06 AM25 °C23 °C89 %1014.2 hPa16.1 kmENE (60°)27.8 km/hMostly Cloudy
1:27 AM25 °C23 °C89 %1014.2 hPa16.1 kmENE (60°)24.1 km/hLight Drizzle
1:34 AM25 °C23 °C89 %1013.9 hPa16.1 kmENE (60°)29.6 km/hLight Drizzle
1:36 AM25 °C23 °C89 %1013.9 hPa16.1 kmNE (50°)31.5 km/h40.7 km/hMostly Cloudy
1:44 AM25 °C23 °C89 %1013.9 hPa16.1 kmNE (50°)25.9 km/h40.7 km/hMostly Cloudy
1:54 AM25 °C23 °C89 %1013.9 hPa16.1 kmNE (50°)27.8 km/hMostly Cloudy
1:55 AM25.3 °C22.7 °C85 %1013.9 hPa16.1 kmNE (50°)29.6 km/h0 mmMostly Cloudy
2:04 AM25 °C23 °C89 %1013.9 hPa16.1 kmENE (60°)27.8 km/hMostly Cloudy
2:29 AM25 °C23 °C89 %1013.9 hPa16.1 kmENE (60°)29.6 km/hMostly Cloudy
2:32 AM25 °C22 °C83 %1013.9 hPa16.1 kmENE (60°)27.8 km/h38.9 km/hMostly Cloudy
2:33 AM25 °C22 °C83 %1013.9 hPa16.1 kmENE (60°)27.8 km/h38.9 km/hMostly Cloudy
2:37 AM25 °C22 °C83 %1013.9 hPa16.1 kmENE (60°)31.5 km/h40.7 km/hMostly Cloudy
2:55 AM25.1 °C21.9 °C82 %1013.5 hPa16.1 kmENE (60°)29.6 km/hMostly Cloudy
3:28 AM25 °C23 °C89 %1013.2 hPa16.1 kmNE (50°)24.1 km/hOvercast
3:41 AM25 °C22 °C83 %1013.5 hPa16.1 kmNE (50°)35.2 km/h44.4 km/hRainLight Rain
3:42 AM25 °C22 °C83 %1013.2 hPa16.1 kmNE (50°)35.2 km/h44.4 km/hLight Drizzle
3:51 AM25 °C23 °C89 %1013.5 hPa16.1 kmNE (50°)27.8 km/hMostly Cloudy
3:55 AM25.1 °C22.7 °C86 %1013.5 hPa16.1 kmENE (60°)27.8 km/h0 mmMostly Cloudy
3:59 AM25 °C23 °C89 %1013.5 hPa16.1 kmENE (60°)27.8 km/hMostly Cloudy
4:06 AM25 °C23 °C89 %1013.5 hPa16.1 kmNE (50°)33.3 km/h40.7 km/hMostly Cloudy
4:07 AM25 °C23 °C89 %1013.5 hPa16.1 kmNE (50°)29.6 km/h40.7 km/hLight Drizzle
4:18 AM25 °C23 °C89 %1013.5 hPa16.1 kmNE (50°)31.5 km/h40.7 km/hMostly Cloudy
4:55 AM25.3 °C22.2 °C83 %1013.9 hPa16.1 kmNE (50°)31.5 km/h0 mmMostly Cloudy
5:20 AM25 °C23 °C89 %1014.2 hPa12.9 kmNE (50°)33.3 km/h40.7 km/hRainLight Rain
5:30 AM25 °C22 °C83 %1014.2 hPa16.1 kmNE (50°)31.5 km/hMostly Cloudy
5:37 AM25 °C22 °C83 %1014.6 hPa16.1 kmNE (50°)35.2 km/h44.4 km/hLight Drizzle
5:50 AM25 °C22 °C83 %1014.6 hPa16.1 kmNE (50°)35.2 km/h40.7 km/hMostly Cloudy
5:53 AM25 °C22 °C83 %1014.6 hPa16.1 kmNE (50°)31.5 km/hMostly Cloudy
5:55 AM24.7 °C21.6 °C83 %1014.9 hPa16.1 kmNE (50°)31.5 km/h0.25 mmMostly Cloudy
5:56 AM25 °C22 °C83 %1014.9 hPa16.1 kmNE (50°)29.6 km/hMostly Cloudy
6:04 AM25 °C22 °C83 %1014.9 hPa16.1 kmENE (60°)29.6 km/hMostly Cloudy
6:06 AM25 °C22 °C83 %1014.9 hPa16.1 kmNE (50°)29.6 km/hMostly Cloudy
6:11 AM25 °C22 °C83 %1014.9 hPa16.1 kmNE (50°)31.5 km/hMostly Cloudy
6:12 AM25 °C22 °C83 %1014.9 hPa16.1 kmNE (50°)31.5 km/hMostly Cloudy
6:26 AM25 °C22 °C83 %1014.9 hPa16.1 kmNE (50°)29.6 km/hMostly Cloudy
6:28 AM25 °C22 °C83 %1014.9 hPa16.1 kmNE (50°)29.6 km/hMostly Cloudy
6:55 AM25.1 °C22 °C83 %1015.2 hPa16.1 kmNE (50°)37 km/h44.4 km/hOvercast
7:32 AM25 °C22 °C83 %1015.9 hPa16.1 kmNE (50°)37 km/hMostly Cloudy
7:33 AM25 °C22 °C83 %1015.9 hPa16.1 kmNE (50°)35.2 km/h46.3 km/hMostly Cloudy
7:35 AM25 °C22 °C83 %1015.9 hPa16.1 kmNE (50°)35.2 km/h46.3 km/hMostly Cloudy
7:55 AM25.5 °C21.6 °C79 %1015.9 hPa16.1 kmNE (50°)29.6 km/h44.4 km/hOvercast
8:55 AM25.9 °C22.2 °C80 %1016.3 hPa16.1 kmNE (40°)37 km/h48.1 km/hMostly Cloudy
9:02 AM26 °C23 °C83 %1016.6 hPa12.9 kmNE (50°)40.7 km/h48.1 km/hRainLight Rain
9:04 AM25 °C23 °C89 %1016.3 hPa11.3 kmNE (50°)35.2 km/hLight Drizzle
9:14 AM24 °C23 °C94 %1016.6 hPa8 kmNNE (30°)33.3 km/h46.3 km/hRainLight Rain
9:16 AM24 °C23 °C94 %1016.6 hPa9.7 kmNNE (30°)33.3 km/h46.3 km/hRainLight Rain
9:17 AM24 °C23 °C94 %1016.6 hPa12.9 kmNNE (30°)33.3 km/hOvercast
9:35 AM26 °C23 °C83 %1016.6 hPa16.1 kmNE (40°)40.7 km/h53.8 km/hMostly Cloudy
9:40 AM26 °C23 °C83 %1016.6 hPa16.1 kmNE (40°)42.6 km/h53.8 km/hMostly Cloudy
9:42 AM26 °C23 °C83 %1016.6 hPa16.1 kmNE (40°)42.6 km/h53.8 km/hMostly Cloudy
9:44 AM26 °C23 °C83 %1016.6 hPa16.1 kmNE (40°)38.9 km/h53.8 km/hMostly Cloudy
9:46 AM26 °C23 °C83 %1016.6 hPa16.1 kmNE (40°)38.9 km/h53.8 km/hMostly Cloudy
9:55 AM26.4 °C22.8 °C80 %1016.6 hPa16.1 kmNE (40°)40.7 km/h50.1 km/h0.51 mmMostly Cloudy
10:00 AM26 °C23 °C83 %1016.6 hPa16.1 kmNE (40°)38.9 km/h50.1 km/hMostly Cloudy
10:35 AM27 °C23 °C79 %1016.3 hPa16.1 kmNE (50°)38.9 km/h48.1 km/hMostly Cloudy
10:41 AM27 °C23 °C79 %1016.3 hPa16.1 kmNE (50°)38.9 km/h48.1 km/hMostly Cloudy
10:42 AM27 °C23 °C79 %1016.3 hPa16.1 kmNE (50°)38.9 km/h48.1 km/hMostly Cloudy
10:44 AM27 °C23 °C79 %1016.3 hPa16.1 kmNE (50°)40.7 km/h48.1 km/hMostly Cloudy
10:51 AM27 °C22 °C74 %1016.3 hPa16.1 kmNE (40°)40.7 km/h51.8 km/hScattered Clouds
10:55 AM27.4 °C22.4 °C74 %1015.9 hPa16.1 kmNE (50°)37 km/h51.8 km/hScattered Clouds
11:02 AM28 °C23 °C74 %1015.9 hPa16.1 kmNE (50°)42.6 km/hMostly Cloudy
11:16 AM28 °C22 °C70 %1015.9 hPa16.1 kmNE (50°)40.7 km/h50.1 km/hScattered Clouds
11:17 AM28 °C22 °C70 %1015.9 hPa16.1 kmNE (50°)40.7 km/h50.1 km/hMostly Cloudy
11:27 AM28 °C22 °C70 %1015.9 hPa16.1 kmNE (40°)44.4 km/hScattered Clouds
11:29 AM27 °C22 °C74 %1015.9 hPa16.1 kmNE (40°)40.7 km/hMostly Cloudy
11:35 AM28 °C22 °C70 %1015.9 hPa16.1 kmNE (40°)40.7 km/hMostly Cloudy
11:55 AM27.7 °C22.4 °C73 %1015.6 hPa16.1 kmNNE (30°)40.7 km/h53.8 km/hScattered Clouds
12:06 PM27 °C22 °C74 %1015.2 hPa16.1 kmNNE (30°)29.6 km/h48.1 km/hMostly Cloudy
12:18 PM27 °C23 °C79 %1015.2 hPa16.1 kmNNE (30°)31.5 km/h42.6 km/hMostly Cloudy
12:27 PM27 °C23 °C79 %1015.2 hPa9.7 kmNE (40°)51.8 km/h64.9 km/hHaze
12:28 PM27 °C23 °C79 %1015.2 hPa8 kmNE (50°)46.3 km/h64.9 km/hRainLight Rain
12:36 PM25 °C23 °C89 %1015.2 hPa6.4 kmNE (40°)38.9 km/h64.9 km/hRainLight Rain
12:39 PM25 °C23 °C89 %1015.2 hPa12.9 kmNE (40°)35.2 km/h59.2 km/hOvercast
12:55 PM26.2 °C22.9 °C82 %1014.6 hPa16.1 kmNE (40°)37 km/h48.1 km/h0.25 mmOvercast
1:02 PM26 °C23 °C83 %1014.6 hPa8 kmNE (50°)37 km/hHaze
1:03 PM26 °C23 °C83 %1014.6 hPa6.4 kmNE (50°)37 km/hRainRain
1:07 PM25 °C23 °C89 %1014.6 hPa4 kmNE (50°)38.9 km/h51.8 km/hRainRain
1:09 PM25 °C23 °C89 %1014.6 hPa3.2 kmENE (60°)38.9 km/h51.8 km/hRainRain
1:12 PM24 °C23 °C94 %1014.6 hPa4 kmENE (60°)38.9 km/h51.8 km/hRainLight Rain
1:15 PM24 °C24 °C100 %1014.6 hPa4.8 kmNE (50°)38.9 km/h51.8 km/hRainLight Rain
1:17 PM25 °C24 °C94 %1014.6 hPa6.4 kmNE (50°)33.3 km/hRainLight Rain
1:18 PM25 °C24 °C94 %1014.6 hPa6.4 kmNE (50°)35.2 km/hRainLight Rain
1:21 PM25 °C24 °C94 %1014.6 hPa9.7 kmNE (40°)38.9 km/hRainLight Rain
1:23 PM25 °C24 °C94 %1014.6 hPa9.7 kmNE (40°)38.9 km/hOvercast
1:32 PM25 °C23 °C89 %1014.2 hPa12.9 kmNE (40°)35.2 km/h44.4 km/hMostly Cloudy
1:42 PM25 °C24 °C94 %1014.2 hPa16.1 kmNE (40°)35.2 km/h46.3 km/hOvercast
1:45 PM26 °C24 °C89 %1014.2 hPa16.1 kmNE (50°)31.5 km/h46.3 km/hOvercast
1:51 PM26 °C23 °C83 %1013.9 hPa14.5 kmNE (50°)35.2 km/h46.3 km/hMostly Cloudy
1:53 PM26 °C23 °C83 %1013.9 hPa9.7 kmNE (50°)42.6 km/h51.8 km/hRainLight Rain
1:55 PM25.2 °C23.3 °C89 %1013.9 hPa9.7 kmNE (50°)33.3 km/h51.8 km/h0.76 mmRainLight Rain
1:56 PM25 °C23 °C89 %1013.9 hPa9.7 kmNE (40°)29.6 km/h51.8 km/hRainLight Rain
2:03 PM25 °C23 °C89 %1013.9 hPa14.5 kmNE (40°)38.9 km/hOvercast
2:13 PM26 °C23 °C83 %1013.9 hPa16.1 kmNE (40°)40.7 km/hMostly Cloudy
2:29 PM27 °C23 °C79 %1013.5 hPa16.1 kmNE (40°)42.6 km/hMostly Cloudy
2:35 PM27 °C22 °C74 %1013.5 hPa16.1 kmNE (40°)46.3 km/h55.5 km/hMostly Cloudy
2:43 PM27 °C22 °C74 %1013.2 hPa16.1 kmNE (40°)42.6 km/h55.5 km/hMostly Cloudy
2:55 PM27.2 °C22.3 °C74 %1013.2 hPa16.1 kmNE (40°)44.4 km/h55.5 km/h0 mmMostly Cloudy
3:55 PM26 °C21.9 °C78 %1013.2 hPa16.1 kmNE (40°)42.6 km/h53.8 km/hOvercast
4:15 PM26 °C22 °C78 %1013.5 hPa16.1 kmNE (40°)38.9 km/h53.8 km/hLight Drizzle
4:25 PM26 °C22 °C78 %1013.5 hPa14.5 kmNNE (30°)42.6 km/h53.8 km/hOvercast
4:39 PM25 °C22 °C83 %1013.9 hPa8 kmNE (40°)44.4 km/h51.8 km/hRainRain
4:44 PM25 °C23 °C89 %1013.9 hPa8 kmNNE (30°)33.3 km/h51.8 km/hRainLight Rain
4:52 PM25 °C23 °C89 %1013.9 hPa8 kmNE (40°)44.4 km/h51.8 km/hOvercast
4:53 PM25 °C23 °C89 %1013.9 hPa6.4 kmNE (40°)46.3 km/h51.8 km/hRainLight Rain
4:55 PM24.4 °C22.8 °C91 %1013.9 hPa4.8 kmNE (40°)42.6 km/h51.8 km/h0.51 mmRainLight Rain
4:56 PM24 °C23 °C94 %1013.9 hPa4.8 kmNE (40°)37 km/h51.8 km/hRainLight Rain
4:58 PM24 °C23 °C94 %1013.9 hPa4.8 kmNE (40°)37 km/h51.8 km/hRainLight Rain
5:00 PM24 °C23 °C94 %1013.9 hPa4.8 kmNNE (30°)38.9 km/h51.8 km/hRainLight Rain
5:06 PM24 °C23 °C94 %1013.9 hPa12.9 kmNNE (30°)31.5 km/h50.1 km/hLight Drizzle
5:07 PM24 °C23 °C94 %1013.9 hPa14.5 kmNNE (30°)29.6 km/h50.1 km/hOvercast
5:10 PM24 °C23 °C94 %1013.9 hPa16.1 kmNNE (30°)42.6 km/h51.8 km/hLight Drizzle
5:11 PM24 °C23 °C94 %1013.9 hPa16.1 kmNNE (30°)40.7 km/h51.8 km/hOvercast
5:19 PM24 °C23 °C94 %1013.9 hPa9.7 kmNE (40°)40.7 km/h53.8 km/hRainLight Rain
5:20 PM24 °C23 °C94 %1014.2 hPa9.7 kmNE (40°)42.6 km/h53.8 km/hOvercast
5:21 PM24 °C23 °C94 %1014.2 hPa9.7 kmNE (40°)44.4 km/h53.8 km/hRainLight Rain
5:25 PM24 °C23 °C94 %1014.2 hPa9.7 kmNNE (30°)37 km/h51.8 km/hRainLight Rain
5:29 PM24 °C23 °C94 %1014.2 hPa12.9 kmNNE (30°)31.5 km/h51.8 km/hOvercast
5:31 PM24 °C23 °C94 %1014.2 hPa14.5 kmNE (40°)33.3 km/h50.1 km/hOvercast
5:35 PM24 °C23 °C94 %1014.2 hPa16.1 kmNNE (30°)33.3 km/h50.1 km/hOvercast
5:36 PM24 °C23 °C94 %1014.2 hPa16.1 kmNNE (30°)35.2 km/h50.1 km/hOvercast
5:42 PM24 °C23 °C94 %1014.2 hPa16.1 kmNE (40°)37 km/h48.1 km/hOvercast
5:43 PM24 °C23 °C94 %1014.2 hPa12.9 kmNNE (30°)42.6 km/h51.8 km/hOvercast
5:45 PM24 °C23 °C94 %1014.2 hPa11.3 kmNNE (30°)40.7 km/h51.8 km/hRainLight Rain
5:49 PM24 °C23 °C94 %1014.2 hPa9.7 kmNNE (30°)38.9 km/h51.8 km/hLight Drizzle
5:55 PM24 °C22.6 °C92 %1014.2 hPa12.9 kmNNE (30°)35.2 km/h50.1 km/h0.25 mmRainLight Rain
5:56 PM24 °C23 °C94 %1014.2 hPa12.9 kmNNE (30°)35.2 km/h50.1 km/hRainLight Rain
6:00 PM24 °C23 °C94 %1014.2 hPa14.5 kmNNE (30°)31.5 km/hOvercast
6:04 PM24 °C23 °C94 %1014.6 hPa12.9 kmNE (40°)42.6 km/h50.1 km/hRainLight Rain
6:22 PM24 °C23 °C94 %1014.6 hPa12.9 kmNNE (30°)37 km/h51.8 km/hRainLight Rain
6:27 PM24 °C23 °C94 %1014.6 hPa16.1 kmNNE (30°)37 km/h48.1 km/hOvercast
6:28 PM24 °C22 °C89 %1014.6 hPa16.1 kmNNE (30°)35.2 km/h48.1 km/hOvercast
6:37 PM24 °C23 °C94 %1014.6 hPa14.5 kmNNE (30°)33.3 km/h46.3 km/hRainLight Rain
6:42 PM24 °C23 °C94 %1014.6 hPa12.9 kmNNE (30°)38.9 km/h46.3 km/hRainLight Rain
6:46 PM24 °C22 °C89 %1014.6 hPa14.5 kmNNE (30°)35.2 km/h46.3 km/hRainLight Rain
6:48 PM24 °C22 °C89 %1014.6 hPa16.1 kmNNE (30°)35.2 km/hRainLight Rain
6:49 PM24 °C22 °C89 %1014.6 hPa16.1 kmNNE (30°)33.3 km/h46.3 km/hMostly Cloudy
6:50 PM24 °C22 °C89 %1014.6 hPa16.1 kmNNE (30°)38.9 km/h50.1 km/hMostly Cloudy
6:55 PM24.1 °C22.3 °C90 %1014.6 hPa16.1 kmNNE (30°)37 km/h53.8 km/h0.25 mmMostly Cloudy
6:56 PM24 °C22 °C89 %1014.6 hPa16.1 kmNNE (30°)38.9 km/h53.8 km/hMostly Cloudy
7:06 PM24 °C23 °C94 %1014.6 hPa16.1 kmNNE (20°)35.2 km/h57.5 km/hOvercast
7:17 PM24 °C22 °C89 %1014.9 hPa14.5 kmNNE (20°)42.6 km/h57.5 km/hLight Drizzle
7:25 PM24 °C22 °C89 %1014.9 hPa16.1 kmNNE (30°)37 km/hOvercast
7:47 PM24 °C22 °C89 %1015.2 hPa16.1 kmNE (40°)38.9 km/h55.5 km/hRainLight Rain
7:55 PM23.8 °C22.3 °C91 %1015.6 hPa12.9 kmNNE (30°)37 km/h55.5 km/h0 mmRainLight Rain
7:59 PM24 °C22 °C89 %1015.2 hPa12.9 kmNNE (20°)37 km/h50.1 km/hRainLight Rain
8:05 PM24 °C22 °C89 %1015.6 hPa14.5 kmNE (40°)35.2 km/h46.3 km/hOvercast
8:08 PM24 °C22 °C89 %1015.6 hPa16.1 kmNE (40°)35.2 km/h46.3 km/hOvercast
8:11 PM24 °C22 °C89 %1015.6 hPa16.1 kmNE (40°)38.9 km/h48.1 km/hOvercast
8:32 PM24 °C22 °C89 %1015.9 hPa12.9 kmNE (40°)44.4 km/h61.2 km/hRainLight Rain
8:37 PM24 °C22 °C89 %1015.9 hPa12.9 kmNE (40°)38.9 km/h61.2 km/hRainLight Rain
8:40 PM24 °C22 °C89 %1016.3 hPa14.5 kmNE (40°)35.2 km/h46.3 km/hOvercast
8:52 PM23 °C22 °C94 %1016.3 hPa12.9 kmNNE (30°)31.5 km/h48.1 km/hDrizzle
8:53 PM23 °C22 °C94 %1016.3 hPa12.9 kmNNE (30°)33.3 km/h48.1 km/hLight Drizzle
8:55 PM23.2 °C22 °C93 %1016.3 hPa12.9 kmNE (40°)27.8 km/h48.1 km/h0 mmLight Drizzle
8:58 PM23 °C22 °C94 %1016.3 hPa14.5 kmNNE (30°)27.8 km/h44.4 km/hLight Drizzle
9:02 PM23 °C22 °C94 %1016.3 hPa16.1 kmNNE (30°)33.3 km/h44.4 km/hOvercast
9:05 PM24 °C22 °C89 %1016.3 hPa16.1 kmNNE (30°)31.5 km/h42.6 km/hMostly Cloudy
9:07 PM24 °C22 °C89 %1016.3 hPa16.1 kmNNE (30°)37 km/h44.4 km/hMostly Cloudy
9:09 PM24 °C22 °C89 %1016.3 hPa16.1 kmNNE (30°)31.5 km/h44.4 km/hMostly Cloudy
9:11 PM24 °C22 °C89 %1016.3 hPa16.1 kmNNE (30°)35.2 km/h44.4 km/hMostly Cloudy
9:17 PM24 °C22 °C89 %1016.3 hPa16.1 kmNNE (20°)37 km/h51.8 km/hMostly Cloudy
9:27 PM24 °C22 °C89 %1016.6 hPa16.1 kmNNE (30°)35.2 km/h50.1 km/hMostly Cloudy
9:46 PM24 °C21 °C83 %1016.6 hPa16.1 kmNE (40°)44.4 km/h53.8 km/hRainLight Rain
9:55 PM23.8 °C21.4 °C86 %1016.6 hPa16.1 kmNNE (30°)29.6 km/h53.8 km/h0 mmLight Drizzle
9:56 PM24 °C21 °C83 %1016.6 hPa16.1 kmNNE (30°)33.3 km/h53.8 km/hOvercast
10:41 PM24 °C21 °C83 %1016.6 hPa16.1 kmNNE (30°)35.2 km/h46.3 km/hMostly Cloudy
10:55 PM24.1 °C20.8 °C82 %1016.6 hPa16.1 kmNNE (30°)33.3 km/hMostly Cloudy
11:01 PM24 °C21 °C83 %1016.6 hPa16.1 kmNNE (30°)40.7 km/h51.8 km/hMostly Cloudy
11:18 PM25 °C20 °C74 %1016.6 hPa16.1 kmNE (40°)33.3 km/h57.5 km/hMostly Cloudy
11:19 PM25 °C20 °C74 %1016.6 hPa16.1 kmNE (40°)35.2 km/h57.5 km/hOvercast
11:38 PM25 °C20 °C74 %1016.3 hPa16.1 kmNE (40°)37 km/h51.8 km/hOvercast
11:40 PM25 °C20 °C74 %1016.3 hPa16.1 kmNNE (30°)35.2 km/hOvercast
11:42 PM25 °C20 °C74 %1016.3 hPa16.1 kmNE (40°)35.2 km/h50.1 km/hOvercast
11:54 PM25 °C21 °C78 %1016.3 hPa16.1 kmNNE (30°)38.9 km/h51.8 km/hOvercast
11:55 PM25 °C20.9 °C78 %1016.3 hPa16.1 kmNNE (30°)37 km/h51.8 km/hOvercast
11:59 PM25 °C21 °C78 %1016.3 hPa16.1 kmNNE (30°)37 km/hOvercast
Hourly data recorded from PGUA, located 0 kilometers away from Merizo, Guam







STORIES FROM OUR PARTNERS